EW0797 Weather Reports


Display with metric or nautical units.
time (UTC)temp
F
wind
direction
speed
MPH
gust
MPH
rain 1hr
in
rain 24hr
in
rain mn
in
humidity
%
barometer
mb
20220518194023 77 182 2.0 8.0 0.00 0.00 0.00 54 1008.1
20220518193524 77 197 2.0 8.0 0.00 0.00 0.00 53 1008.2
20220518193023 78 174 3.0 8.0 0.00 0.00 0.00 53 1008.1
20220518192523 78 166 3.0 8.0 0.00 0.00 0.00 52 1008.0
20220518192023 78 174 4.0 8.0 0.00 0.00 0.00 52 1008.2
20220518191523 79 171 4.0 11.0 0.00 0.00 0.00 52 1008.2
20220518191023 79 168 5.0 11.0 0.00 0.00 0.00 51 1008.3
20220518190523 79 167 4.0 10.0 0.00 0.00 0.00 50 1008.7
20220518190023 79 171 5.0 16.0 0.00 0.00 0.00 52 1008.7
20220518185523 78 191 6.0 16.0 0.00 0.00 0.00 51 1008.9
20220518185023 78 204 5.0 13.0 0.00 0.00 0.00 52 1009.0
20220518184523 78 194 5.0 12.0 0.00 0.00 0.00 53 1009.1
20220518184023 78 172 4.0 13.0 0.00 0.00 0.00 52 1008.9
20220518183523 77 160 5.0 13.0 0.00 0.00 0.00 52 1008.7
20220518183023 77 159 5.0 14.0 0.00 0.00 0.00 53 1008.8
20220518182523 77 158 5.0 14.0 0.00 0.00 0.00 53 1008.8
20220518182022 76 160 4.0 9.0 0.00 0.00 0.00 54 1009.1
20220518181523 76 162 5.0 9.0 0.00 0.00 0.00 54 1009.0
20220518181022 76 158 5.0 14.0 0.00 0.00 0.00 53 1009.1
20220518180523 76 157 5.0 14.0 0.00 0.00 0.00 54 1009.1
20220518180023 76 156 5.0 14.0 0.00 0.00 0.00 54 1009.3
20220518175523 77 146 6.0 15.0 0.00 0.00 0.00 54 1009.3
20220518175023 77 148 5.0 15.0 0.00 0.00 0.00 54 1009.2
20220518174522 77 145 5.0 12.0 0.00 0.00 0.00 54 1009.0
20220518174023 77 138 4.0 12.0 0.00 0.00 0.00 54 1008.7
20220518173523 77 147 4.0 9.0 0.00 0.00 0.00 54 1008.9
20220518173023 76 143 5.0 9.0 0.00 0.00 0.00 55 1009.1
20220518172523 76 135 6.0 12.0 0.00 0.00 0.00 56 1009.3
20220518172023 75 133 5.0 12.0 0.00 0.00 0.00 56 1009.4
20220518171524 75 136 4.0 11.0 0.00 0.00 0.00 57 1009.6
20220518171023 75 144 5.0 11.0 0.00 0.00 0.00 57 1010.3
20220518170523 75 144 5.0 10.0 0.00 0.00 0.00 58 1010.7
20220518170023 74 141 5.0 10.0 0.00 0.00 0.00 58 1010.9
20220518165523 74 139 5.0 12.0 0.00 0.00 0.00 57 1011.1
20220518165023 74 154 4.0 12.0 0.00 0.00 0.00 57 1011.6
20220518164522 75 170 3.0 7.0 0.00 0.00 0.00 57 1011.8
20220518164023 75 193 4.0 10.0 0.00 0.00 0.00 56 1012.4
20220518163523 75 218 5.0 10.0 0.00 0.00 0.00 55 1013.1
20220518163023 75 225 4.0 11.0 0.00 0.00 0.00 54 1013.4
20220518162523 75 232 4.0 11.0 0.00 0.00 0.00 53 1013.6
20220518162023 75 231 4.0 9.0 0.00 0.00 0.00 54 1013.7
20220518161524 76 216 4.0 9.0 0.00 0.00 0.00 54 1014.0
20220518161023 76 207 3.0 8.0 0.00 0.00 0.00 54 1014.0
20220518160523 75 203 4.0 9.0 0.00 0.00 0.00 55 1013.9
20220518160023 75 192 4.0 9.0 0.00 0.00 0.00 54 1014.0
20220518155523 75 203 4.0 8.0 0.00 0.00 0.00 55 1013.9
20220518155023 75 220 4.0 8.0 0.00 0.00 0.00 54 1014.0
20220518154522 75 221 4.0 11.0 0.00 0.00 0.00 54 1014.1
20220518154022 74 218 4.0 11.0 0.00 0.00 0.00 54 1014.0
20220518153523 74 202 3.0 7.0 0.00 0.00 0.00 56 1014.2
20220518153023 74 198 3.0 8.0 0.00 0.00 0.00 56 1014.2
20220518152523 74 198 4.0 9.0 0.00 0.00 0.00 56 1014.4
20220518152023 74 204 4.0 9.0 0.00 0.00 0.00 56 1014.6
20220518151523 73 218 4.0 8.0 0.00 0.00 0.00 56 1014.6
20220518151023 73 222 5.0 9.0 0.00 0.00 0.00 57 1014.8
20220518150523 72 220 4.0 10.0 0.00 0.00 0.00 58 1015.0
20220518150023 72 212 3.0 10.0 0.00 0.00 0.00 57 1015.1
20220518145523 72 209 3.0 6.0 0.00 0.00 0.00 59 1015.1
20220518145023 72 217 3.0 7.0 0.00 0.00 0.00 59 1015.3
20220518144522 72 215 2.0 7.0 0.00 0.00 0.00 58 1015.4
20220518144023 72 211 3.0 7.0 0.00 0.00 0.00 58 1015.5
20220518143523 72 221 4.0 8.0 0.00 0.00 0.00 58 1015.5
20220518143023 72 223 3.0 10.0 0.00 0.00 0.00 57 1015.5
20220518142522 72 216 3.0 10.0 0.00 0.00 0.00 56 1015.3
20220518142023 72 213 3.0 7.0 0.00 0.00 0.00 57 1015.1
20220518141523 72 216 2.0 5.0 0.00 0.00 0.00 58 1014.9
20220518141023 72 220 2.0 6.0 0.00 0.00 0.00 58 1014.9
20220518140523 72 217 2.0 6.0 0.00 0.00 0.00 58 1014.8
20220518140022 72 213 2.0 4.0 0.00 0.00 0.00 58 1014.7
20220518135523 72 208 2.0 6.0 0.00 0.00 0.00 58 1014.5
20220518135023 71 200 2.0 6.0 0.00 0.00 0.00 58 1014.5
20220518134523 71 204 2.0 5.0 0.00 0.00 0.00 58 1014.4
20220518134023 71 209 2.0 7.0 0.00 0.00 0.00 58 1014.4
20220518133523 71 203 3.0 7.0 0.00 0.00 0.00 57 1014.4
20220518133022 71 209 3.0 7.0 0.00 0.00 0.00 57 1014.3
20220518132523 71 212 2.0 4.0 0.00 0.00 0.00 57 1014.5
20220518132023 71 195 2.0 7.0 0.00 0.00 0.00 57 1014.3
20220518131523 71 195 2.0 7.0 0.00 0.00 0.00 57 1014.1
20220518131023 71 188 3.0 7.0 0.00 0.00 0.00 57 1014.1
20220518130523 71 182 2.0 7.0 0.00 0.00 0.00 57 1014.2
20220518130023 71 183 2.0 4.0 0.00 0.00 0.00 59 1013.9
20220518125523 71 199 2.0 5.0 0.00 0.00 0.00 59 1013.9
20220518125023 70 204 1.0 5.0 0.00 0.00 0.00 62 1014.0
20220518124523 70 0 0.0 3.0 0.00 0.00 0.00 61 1013.9
20220518124022 70 195 1.0 3.0 0.00 0.00 0.00 61 1014.0
20220518123523 70 195 1.0 5.0 0.00 0.00 0.00 60 1014.0
20220518123023 69 182 1.0 5.0 0.00 0.00 0.00 61 1014.0
20220518122523 69 164 1.0 4.0 0.00 0.00 0.00 62 1014.1
20220518122023 69 157 1.0 3.0 0.00 0.00 0.00 62 1014.0
20220518121523 68 152 1.0 3.0 0.00 0.00 0.00 63 1014.0
20220518121022 68 149 1.0 3.0 0.00 0.00 0.00 63 1013.9
20220518120522 67 147 2.0 5.0 0.00 0.00 0.00 63 1013.9
20220518120023 67 147 2.0 6.0 0.00 0.00 0.00 63 1014.0
20220518115523 67 151 2.0 6.0 0.00 0.00 0.00 63 1014.0
20220518115023 67 152 2.0 4.0 0.00 0.00 0.00 63 1013.9
20220518114522 67 152 2.0 4.0 0.00 0.00 0.00 63 1013.9
20220518114023 67 158 1.0 4.0 0.00 0.00 0.00 63 1014.1
20220518113523 67 156 1.0 4.0 0.00 0.00 0.00 63 1014.2
20220518113023 67 162 1.0 4.0 0.00 0.00 0.00 63 1014.2
20220518112523 66 157 2.0 4.0 0.00 0.00 0.00 64 1014.2
20220518112023 66 147 3.0 5.0 0.00 0.00 0.00 63 1014.1
20220518111523 66 148 3.0 5.0 0.00 0.00 0.00 64 1014.0
20220518111023 66 149 3.0 6.0 0.00 0.00 0.00 65 1014.1
20220518110523 65 147 2.0 6.0 0.00 0.00 0.00 66 1014.2
20220518110022 65 153 1.0 3.0 0.00 0.00 0.00 66 1014.3
20220518105523 65 156 1.0 3.0 0.00 0.00 0.00 67 1014.3
20220518105023 65 150 1.0 4.0 0.00 0.00 0.00 68 1014.2
20220518104523 65 149 1.0 4.0 0.00 0.00 0.00 68 1014.2
20220518104023 64 146 1.0 2.0 0.00 0.00 0.00 68 1014.2
20220518103523 64 0 0.0 2.0 0.00 0.00 0.00 69 1014.2
20220518103022 64 143 1.0 4.0 0.00 0.00 0.00 69 1014.2
20220518102523 64 143 2.0 4.0 0.00 0.00 0.00 69 1014.0
20220518102023 64 144 2.0 4.0 0.00 0.00 0.00 70 1014.0
20220518101523 63 141 2.0 4.0 0.00 0.00 0.00 70 1014.0
20220518101022 63 144 1.0 3.0 0.00 0.00 0.00 71 1014.3
20220518100522 63 149 1.0 3.0 0.00 0.00 0.00 71 1014.3
20220518100023 63 0 0.0 2.0 0.00 0.00 0.00 72 1014.3
20220518095523 63 144 1.0 3.0 0.00 0.00 0.00 72 1014.3
20220518095023 63 145 1.0 3.0 0.00 0.00 0.00 72 1014.2
20220518094522 63 145 1.0 3.0 0.00 0.00 0.00 72 1014.0
20220518094023 63 0 0.0 4.0 0.00 0.00 0.00 72 1014.1
20220518093523 63 186 1.0 4.0 0.00 0.00 0.00 72 1014.0
20220518093023 63 204 1.0 3.0 0.00 0.00 0.00 72 1014.0
20220518092523 63 205 1.0 3.0 0.00 0.00 0.00 72 1014.0
20220518092022 63 0 0.0 2.0 0.00 0.00 0.00 72 1014.2
20220518091523 63 206 1.0 2.0 0.00 0.00 0.00 73 1014.1
20220518091023 63 0 0.0 2.0 0.00 0.00 0.00 73 1014.1
20220518090523 63 0 0.0 2.0 0.00 0.00 0.00 73 1014.0
20220518090022 63 0 0.0 0.0 0.00 0.00 0.00 73 1014.1
20220518085522 63 0 0.0 0.0 0.00 0.00 0.00 73 1014.2
20220518085023 63 0 0.0 0.0 0.00 0.00 0.00 73 1014.2
20220518084523 63 0 0.0 0.0 0.00 0.00 0.00 73 1014.2
20220518084023 63 0 0.0 0.0 0.00 0.00 0.00 73 1014.3
20220518083522 63 0 0.0 0.0 0.00 0.00 0.00 73 1014.3
20220518083023 63 0 0.0 0.0 0.00 0.00 0.00 73 1014.3
20220518082523 63 0 0.0 0.0 0.00 0.00 0.00 73 1014.3
20220518082023 63 0 0.0 0.0 0.00 0.00 0.00 73 1014.3
20220518081522 63 0 0.0 0.0 0.00 0.00 0.00 73 1014.3
20220518081023 63 0 0.0 0.0 0.00 0.00 0.00 73 1014.2
20220518080523 63 0 0.0 0.0 0.00 0.00 0.00 74 1014.1
20220518080023 63 0 0.0 0.0 0.00 0.00 0.00 73 1014.0
20220518075522 63 0 0.0 0.0 0.00 0.00 0.00 73 1014.0
20220518075022 63 0 0.0 0.0 0.00 0.00 0.00 73 1014.1
20220518074523 62 0 0.0 2.0 0.00 0.00 0.00 73 1014.1
20220518074023 62 183 1.0 2.0 0.00 0.00 0.00 73 1014.2
20220518073523 62 171 1.0 2.0 0.00 0.00 0.00 73 1014.2
20220518073022 62 183 1.0 3.0 0.00 0.00 0.00 74 1014.2
20220518072522 62 0 0.0 3.0 0.00 0.00 0.00 74 1014.3
20220518072023 62 0 0.0 2.0 0.00 0.00 0.00 75 1014.4
20220518071523 62 0 0.0 2.0 0.00 0.00 0.00 75 1014.5
20220518071022 62 0 0.0 2.0 0.00 0.00 0.00 75 1014.6
20220518070522 62 0 0.0 2.0 0.00 0.00 0.00 75 1014.7
20220518070022 62 0 0.0 0.0 0.00 0.00 0.00 75 1014.6
20220518065523 62 0 0.0 0.0 0.00 0.00 0.00 75 1014.6
20220518065022 62 0 0.0 0.0 0.00 0.00 0.00 75 1014.6
20220518064522 62 0 0.0 0.0 0.00 0.00 0.00 75 1014.6
20220518064023 62 0 0.0 0.0 0.00 0.00 0.00 74 1014.8
20220518063523 62 0 0.0 0.0 0.00 0.00 0.00 74 1014.8
20220518063023 62 0 0.0 0.0 0.00 0.00 0.00 74 1014.8
20220518062522 62 0 0.0 0.0 0.00 0.00 0.00 73 1014.8
20220518062022 62 0 0.0 0.0 0.00 0.00 0.00 73 1014.8
20220518061523 63 0 0.0 0.0 0.00 0.00 0.00 73 1014.8
20220518061023 63 0 0.0 0.0 0.00 0.00 0.00 72 1014.9
20220518060522 63 0 0.0 0.0 0.00 0.00 0.00 72 1015.0
20220518060022 63 0 0.0 0.0 0.00 0.00 0.00 72 1015.1
20220518055523 63 0 0.0 0.0 0.00 0.00 0.00 71 1015.2
20220518055023 63 0 0.0 0.0 0.00 0.00 0.00 71 1015.2
20220518054522 64 0 0.0 0.0 0.00 0.00 0.00 71 1015.2
20220518054022 64 0 0.0 0.0 0.00 0.00 0.00 70 1015.3
20220518053523 64 0 0.0 0.0 0.00 0.00 0.00 70 1015.3
20220518053023 64 0 0.0 0.0 0.00 0.00 0.00 69 1015.4
20220518052523 64 0 0.0 0.0 0.00 0.00 0.00 69 1015.4
20220518052022 64 0 0.0 0.0 0.00 0.00 0.00 69 1015.3
20220518051522 65 0 0.0 0.0 0.00 0.00 0.00 69 1015.3
20220518051022 65 0 0.0 0.0 0.00 0.00 0.00 68 1015.5
20220518050523 65 0 0.0 0.0 0.00 0.00 0.00 68 1015.5
20220518050022 65 0 0.0 0.0 0.00 0.00 0.00 68 1015.5
20220518045522 65 0 0.0 0.0 0.00 0.00 0.00 68 1015.6
20220518045022 66 0 0.0 0.0 0.00 0.00 0.00 68 1015.6
20220518044523 66 0 0.0 0.0 0.00 0.00 0.00 68 1015.7
20220518044023 66 0 0.0 0.0 0.00 0.00 0.00 68 1015.6
20220518043523 66 0 0.0 0.0 0.00 0.00 0.00 68 1015.7
20220518043022 66 0 0.0 0.0 0.00 0.00 0.00 66 1015.7
20220518042522 66 0 0.0 0.0 0.00 0.00 0.00 66 1015.6
20220518042022 66 0 0.0 0.0 0.00 0.00 0.00 66 1015.6
20220518041523 66 0 0.0 0.0 0.00 0.00 0.00 66 1015.6
20220518041023 67 0 0.0 0.0 0.00 0.00 0.00 66 1015.6
20220518040525 67 0 0.0 0.0 0.00 0.00 0.00 65 1015.6
20220518040022 67 0 0.0 1.0 0.00 0.00 0.00 65 1015.7
20220518035523 67 0 0.0 1.0 0.00 0.00 0.00 66 1015.7
20220518035023 67 0 0.0 0.0 0.00 0.00 0.00 65 1015.8
20220518034523 68 0 0.0 0.0 0.00 0.00 0.00 65 1015.8
20220518034022 68 0 0.0 0.0 0.00 0.00 0.00 65 1015.8
20220518033522 68 0 0.0 0.0 0.00 0.00 0.00 64 1015.8
20220518033023 68 0 0.0 0.0 0.00 0.00 0.00 64 1015.8
20220518032523 68 0 0.0 2.0 0.00 0.00 0.00 63 1015.9
20220518032022 68 0 0.0 2.0 0.00 0.00 0.00 63 1015.9
20220518031522 68 0 0.0 0.0 0.00 0.00 0.00 61 1015.7
20220518031023 69 0 0.0 0.0 0.00 0.00 0.00 62 1015.7
20220518030523 69 0 0.0 0.0 0.00 0.00 0.00 61 1015.6
20220518030022 69 0 0.0 0.0 0.00 0.00 0.00 59 1015.6
20220518025522 69 0 0.0 0.0 0.00 0.00 0.00 60 1015.5
20220518025022 70 0 0.0 0.0 0.00 0.00 0.00 60 1015.4
20220518024523 70 0 0.0 0.0 0.00 0.00 0.00 57 1015.4
20220518024022 70 0 0.0 0.0 0.00 0.00 0.00 57 1015.4
20220518023522 70 0 0.0 0.0 0.00 0.00 0.00 56 1015.4
20220518023022 71 0 0.0 0.0 0.00 0.00 0.00 55 1015.3
20220518022523 71 0 0.0 0.0 0.00 0.00 0.00 55 1015.3
20220518022023 72 0 0.0 0.0 0.00 0.00 0.00 53 1015.2
20220518021523 72 0 0.0 0.0 0.00 0.00 0.00 53 1015.1
20220518021022 72 0 0.0 0.0 0.00 0.00 0.00 51 1015.1
20220518020522 73 0 0.0 0.0 0.00 0.00 0.00 51 1015.1
20220518020022 73 0 0.0 0.0 0.00 0.00 0.00 50 1015.1
20220518015523 73 0 0.0 0.0 0.00 0.00 0.00 50 1015.0
20220518015025 74 0 0.0 0.0 0.00 0.00 0.00 49 1015.1
20220518014523 74 0 0.0 0.0 0.00 0.00 0.00 48 1015.0
20220518014023 75 0 0.0 1.0 0.00 0.00 0.00 48 1015.0
20220518013522 75 0 0.0 2.0 0.00 0.00 0.00 48 1015.0
20220518013022 75 0 0.0 2.0 0.00 0.00 0.00 48 1015.0
20220518012523 76 0 0.0 0.0 0.00 0.00 0.00 46 1014.9
20220518012023 76 0 0.0 0.0 0.00 0.00 0.00 46 1014.8
20220518011522 76 0 0.0 0.0 0.00 0.00 0.00 45 1014.8
20220518011022 77 0 0.0 0.0 0.00 0.00 0.00 42 1014.9
20220518010522 77 0 0.0 0.0 0.00 0.00 0.00 41 1014.8
20220518010023 78 0 0.0 0.0 0.00 0.00 0.00 40 1014.8
20220518005523 78 0 0.0 0.0 0.00 0.00 0.00 39 1014.7
20220518005022 79 0 0.0 0.0 0.00 0.00 0.00 39 1014.7
20220518004522 79 0 0.0 0.0 0.00 0.00 0.00 39 1014.6
20220518004023 79 0 0.0 1.0 0.00 0.00 0.00 38 1014.6
20220518003523 80 0 0.0 1.0 0.00 0.00 0.00 38 1014.6
20220518003022 80 0 0.0 2.0 0.00 0.00 0.00 38 1014.6
20220518002522 80 0 0.0 2.0 0.00 0.00 0.00 37 1014.5
20220518002022 80 0 0.0 3.0 0.00 0.00 0.00 37 1014.5
20220518001523 81 302 1.0 4.0 0.00 0.00 0.00 37 1014.5
20220518001022 81 311 1.0 4.0 0.00 0.00 0.00 37 1014.6
20220518000522 81 313 1.0 4.0 0.00 0.00 0.00 37 1014.7
20220518000022 81 283 1.0 6.0 0.00 0.00 0.00 36 1014.6
20220517235523 81 291 2.0 6.0 0.00 0.00 0.00 36 1014.6
20220517235023 81 304 2.0 6.0 0.00 0.00 0.00 36 1014.6
20220517234523 81 269 2.0 6.0 0.00 0.00 0.00 36 1014.6
20220517234022 81 252 1.0 6.0 0.00 0.00 0.00 36 1014.5
20220517233522 82 283 2.0 8.0 0.00 0.00 0.00 35 1014.5
20220517233022 82 279 2.0 8.0 0.00 0.00 0.00 35 1014.5
20220517232523 82 267 1.0 5.0 0.00 0.00 0.00 36 1014.4
20220517232022 82 277 2.0 5.0 0.00 0.00 0.00 35 1014.5
20220517231522 82 266 2.0 7.0 0.00 0.00 0.00 34 1014.5
20220517231022 82 261 3.0 7.0 0.00 0.00 0.00 35 1014.5
20220517230522 82 257 4.0 8.0 0.00 0.00 0.00 35 1014.5
20220517230023 82 242 4.0 8.0 0.00 0.00 0.00 35 1014.4
20220517225522 82 244 3.0 7.0 0.00 0.00 0.00 36 1014.4
20220517225022 82 248 3.0 6.0 0.00 0.00 0.00 34 1014.5
20220517224522 82 268 2.0 6.0 0.00 0.00 0.00 33 1014.5
20220517224023 82 311 3.0 9.0 0.00 0.00 0.00 35 1014.5
20220517223522 82 298 4.0 9.0 0.00 0.00 0.00 34 1014.5
20220517223022 82 296 3.0 9.0 0.00 0.00 0.00 34 1014.5
20220517222522 82 278 3.0 9.0 0.00 0.00 0.00 34 1014.4
20220517222022 82 258 3.0 8.0 0.00 0.00 0.00 33 1014.4
20220517221523 82 275 3.0 6.0 0.00 0.00 0.00 34 1014.4
20220517221022 83 262 2.0 6.0 0.00 0.00 0.00 34 1014.5
20220517220522 83 272 2.0 6.0 0.00 0.00 0.00 34 1014.5
20220517220022 83 265 2.0 6.0 0.00 0.00 0.00 32 1014.5
20220517215522 83 278 3.0 8.0 0.00 0.00 0.00 33 1014.4
20220517215023 83 305 4.0 8.0 0.00 0.00 0.00 33 1014.5
20220517214522 83 307 4.0 9.0 0.00 0.00 0.00 32 1014.6
20220517214022 84 305 4.0 9.0 0.00 0.00 0.00 32 1014.5
20220517213522 84 288 4.0 9.0 0.00 0.00 0.00 30 1014.5
20220517213022 85 282 4.0 9.0 0.00 0.00 0.00 32 1014.6
20220517212522 86 256 3.0 11.0 0.00 0.00 0.00 31 1014.6
20220517212022 86 234 4.0 11.0 0.00 0.00 0.00 30 1014.7
20220517211522 86 251 3.0 7.0 0.00 0.00 0.00 31 1014.8
20220517211022 86 277 2.0 8.0 0.00 0.00 0.00 31 1014.9
20220517210522 86 292 2.0 8.0 0.00 0.00 0.00 33 1015.0
20220517210022 86 294 2.0 7.0 0.00 0.00 0.00 32 1015.1
20220517205523 86 265 3.0 8.0 0.00 0.00 0.00 33 1015.1
20220517205023 85 256 4.0 9.0 0.00 0.00 0.00 33 1015.1
20220517204522 85 276 4.0 14.0 0.00 0.00 0.00 32 1015.2
20220517204022 85 296 4.0 14.0 0.00 0.00 0.00 33 1015.1
20220517203522 85 300 4.0 11.0 0.00 0.00 0.00 31 1015.1
20220517203022 86 302 4.0 11.0 0.00 0.00 0.00 33 1015.1
20220517202523 86 289 3.0 11.0 0.00 0.00 0.00 30 1015.1
20220517202022 86 284 3.0 8.0 0.00 0.00 0.00 32 1015.0
20220517201522 86 291 3.0 8.0 0.00 0.00 0.00 30 1015.1
20220517201022 86 256 4.0 10.0 0.00 0.00 0.00 32 1015.1
20220517200522 86 270 4.0 10.0 0.00 0.00 0.00 33 1015.3
20220517200022 86 293 4.0 9.0 0.00 0.00 0.00 32 1015.2
20220517195522 86 257 5.0 12.0 0.00 0.00 0.00 32 1015.2
20220517195022 86 248 5.0 12.0 0.00 0.00 0.00 32 1015.2
20220517194522 86 235 5.0 14.0 0.00 0.00 0.00 32 1015.3